Regional Weather Roundup
Issued by NWS

Home | Current Version | Previous Version | Graphics & Text | Print | Product List | Glossary On
Versions: 1 2 3 4 5 6 7 8 9 10 11 12 13 14 15 16 17 18 19 20 21 22 23 24 25 26 27 28 29 30 31 32 33 34 35 36 37 38 39 40 41 42 43 44 45 46 47 48 49 50
000
ASUS43 KBIS 012020
RWRND

NORTH DAKOTA REGIONAL WEATHER ROUNDUP
NATIONAL WEATHER SERVICE BISMARCK ND
300 PM CDT WED OCT 01 2014

NOTE: "FAIR" INDICATES FEW OR NO CLOUDS BELOW 12,000 FEET WITH NO
SIGNIFICANT WEATHER AND/OR OBSTRUCTIONS TO VISIBILITY.


NDZ001>003-009>011-017-012100-
NORTHWEST NORTH DAKOTA

CITY           SKY/WX    TMP DP  RH WIND       PRES   REMARKS
WILLISTON      CLOUDY    57  48  72 NW22G30   29.74S
MINOT          CLOUDY    55  51  86 W15       29.65R
MINOT AFB      PTSUNNY   59  52  77 NW22G32   29.64S
$$

NDZ018>021-031>035-040>046-012100-
SOUTHWEST NORTH DAKOTA

CITY           SKY/WX    TMP DP  RH WIND       PRES   REMARKS
BISMARCK       PTSUNNY   63  50  62 W17       29.72F
DICKINSON      CLOUDY    54  46  74 W13       29.76S
GARRISON         N/A     55  51  86 W13G22    29.69R
HETTINGER ARPT CLOUDY    52  46  80 W18       29.83R
$$

NDZ004>008-012>016-024-026-027-054-012100-
NORTHEAST NORTH DAKOTA

CITY           SKY/WX    TMP DP  RH WIND       PRES   REMARKS
GRAND FORKS    PTSUNNY   66  52  60 SW16G24   29.59R
GRND FRKS AFB  CLOUDY    65  55  70 W15G23    29.60R
DEVILS LAKE    CLOUDY    61  50  67 W21G28    29.59R
$$

NDZ022-023-025-028>030-036>039-047>053-012100-
SOUTHEAST NORTH DAKOTA

CITY           SKY/WX    TMP DP  RH WIND       PRES   REMARKS
FARGO          PTSUNNY   71  51  49 SW22      29.63S
JAMESTOWN      CLOUDY    60  50  69 W17       29.66S
$$




USA.gov is the U.S. government's official web portal to all federal, state and local government web resources and services.